Guymon, OK

2:25 AM CDT on October 01, 2016 (GMT -0500)
Guymon Municipal

Weather History for KGUY - March, 2012

Change the Weather History Date:

Monday, March 19, 2012

  Actual Average Record
Temperature  
Mean Temperature 52 °F 47 °F  
Max Temperature 67 °F 62 °F 88 °F (2004)
Min Temperature 37 °F 33 °F 20 °F (2016)
Degree Days  
Heating Degree Days 13 18  
Month to date heating degree days 227 389  
Since 1 July heating degree days 3520 3856  
Cooling Degree Days 0 0  
Month to date cooling degree days 8 0  
Year to date cooling degree days 8 0  
Growing Degree Days 6 (Base 50)    
Moisture  
Dew Point 19 °F    
Average Humidity 28    
Maximum Humidity 46    
Minimum Humidity 9    
Precipitation  
Precipitation T in 0.04 in 0.92 in (2003)
Month to date precipitation 0.18 0.87  
Year to date precipitation 0.51 1.74  
Snow  
Snow 0.00 in - - ()
Month to date snowfall T  
Since 1 July snowfall 9.1  
Snow Depth 0.00 in    
Sea Level Pressure  
Sea Level Pressure 29.49 in    
Wind  
Wind Speed 19 mph (SSW)    
Max Wind Speed 32 mph    
Max Gust Speed 40 mph    
Visibility 10 miles    
Events Rain , Thunderstorm    
T = Trace of Precipitation, MM = Missing Value Source: NWS Daily Summary

Daily Weather History Graph

Daily Weather History Graph

Search for Another Location

Airport or City:

Trip Planner

Search our weather history database for the weather conditions in past years. The results will help you decide how hot, cold, wet, or windy it might be!

Date:

Astronomy

Mar. 19, 2012 Rise Set
Actual Time 7:50 AM CDT 7:57 PM CDT
Civil Twilight 7:24 AM CDT 8:23 PM CDT
Nautical Twilight 6:54 AM CDT 8:53 PM CDT
Astronomical Twilight 6:23 AM CDT 9:23 PM CDT
Moon 5:59 AM CDT (3/19) 5:30 PM CDT (3/19)
Length of Visible Light 12h 58m
Length of Day
12h 07m
Waning Crescent, 8% of the Moon is Illuminated
Mar 19
Waning Crescent
Mar 22
New
Mar 30
First Quarter
Apr 6
Full
Apr 13
Last Quarter

Hourly Weather History & Observations

Time (CDT) Temp. Windchill Dew Point Humidity Pressure Visibility Wind Dir Wind Speed Gust Speed Precip Events Conditions
12:53 AM 68.0 °F - 28.9 °F 23% 29.43 in 9.0 mi SSW 16.1 mph - N/A   Overcast
1:53 AM 66.0 °F - 27.0 °F 23% 29.46 in 8.0 mi South 12.7 mph - N/A   Overcast
2:28 AM 64.4 °F - 26.6 °F 24% 29.60 in 7.0 mi South 15.0 mph - N/A Thunderstorm Overcast
2:43 AM 60.8 °F - 41.0 °F 48% 29.60 in 10.0 mi South 15.0 mph - 0.00 in Rain Light Rain
2:53 AM 61.0 °F - 39.9 °F 46% 29.48 in 10.0 mi SSW 11.5 mph - 0.00 in Rain Light Rain
3:53 AM 61.0 °F - 32.0 °F 34% 29.44 in 10.0 mi SSW 10.4 mph - 0.00 in   Overcast
5:53 AM 55.0 °F - 28.9 °F 37% 29.47 in 10.0 mi SW 11.5 mph - N/A   Clear
6:53 AM 53.1 °F - 28.9 °F 40% 29.49 in 10.0 mi SW 17.3 mph - N/A   Clear
7:53 AM 50.0 °F - 30.0 °F 46% 29.51 in 10.0 mi SW 12.7 mph - N/A   Clear
8:53 AM 51.1 °F - 30.0 °F 44% 29.52 in 10.0 mi SW 16.1 mph - N/A   Clear
9:53 AM 55.0 °F - 30.0 °F 38% 29.51 in 10.0 mi SSW 20.7 mph 28.8 mph N/A   Clear
10:53 AM 59.0 °F - 23.0 °F 25% 29.49 in 10.0 mi SSW 26.5 mph 33.4 mph N/A   Partly Cloudy
11:53 AM 61.0 °F - 15.1 °F 17% 29.49 in 10.0 mi SW 27.6 mph 34.5 mph N/A   Clear
12:53 PM 60.1 °F - 10.0 °F 14% 29.46 in 10.0 mi SW 26.5 mph 33.4 mph N/A   Clear
1:53 PM 60.1 °F - 10.0 °F 14% 29.47 in 10.0 mi SW 27.6 mph 34.5 mph N/A   Mostly Cloudy
2:53 PM 62.1 °F - 5.0 °F 10% 29.44 in 10.0 mi SW 24.2 mph 33.4 mph N/A   Scattered Clouds
3:53 PM 61.0 °F - 3.9 °F 10% 29.42 in 10.0 mi SSW 26.5 mph 34.5 mph N/A   Scattered Clouds
4:53 PM 62.1 °F - 3.0 °F 9% 29.42 in 10.0 mi SSW 31.1 mph 40.3 mph N/A   Partly Cloudy
5:53 PM 60.1 °F - 3.0 °F 10% 29.44 in 10.0 mi SSW 29.9 mph 36.8 mph N/A   Clear
6:53 PM 57.9 °F - 3.9 °F 11% 29.49 in 10.0 mi SW 26.5 mph 35.7 mph N/A   Clear
7:53 PM 54.0 °F - 7.0 °F 15% 29.51 in 10.0 mi SW 15.0 mph - N/A   Clear
8:53 PM 48.0 °F - 10.0 °F 22% 29.52 in 10.0 mi SW 11.5 mph - N/A   Clear
9:53 PM 45.0 °F 39.3 °F 12.0 °F 26% 29.55 in 10.0 mi SSW 11.5 mph - N/A   Clear
10:53 PM 44.1 °F 37.7 °F 17.1 °F 34% 29.55 in 10.0 mi SSW 12.7 mph - N/A   Clear
11:53 PM 41.0 °F 34.3 °F 14.0 °F 33% 29.56 in 10.0 mi SW 11.5 mph - N/A   Clear